Regional Weather Roundup
Issued by NWS

Home | Current Version | Previous Version | Text Only | Print | Product List | Glossary On
Versions: 1 2 3 4 5 6 7 8 9 10 11 12 13 14 15 16 17 18 19 20 21 22 23 24 25 26 27
000
ASUS44 KJAN 230310
RWRMS

MISSISSIPPI HOURLY WEATHER ROUNDUP
NATIONAL WEATHER SERVICE JACKSON MS
900 PM CST WED NOV 22 2017

NOTE: "FAIR: INDICATES FEW OR NO CLOUDS BELOW 12,000 FEET WITH NO
SIGNIFICANT WEATHER AND/OR OBSTRUCTIONS TO VISIBILITY.

MSZ001>002-007>008-010>013-018>021-025>028-034>036-230400-
NORTHWEST MISSISSIPPI

CITY           SKY/WX    TMP DP  RH WIND       PRES   REMARKS
BATESVILLE     FAIR      34  25  69 CALM      30.26S
CLARKSDALE       N/A     37  28  70 N9        30.27S WCI  31
CLEVELAND      FAIR      34  26  73 N6        30.26S WCI  29
GREENWOOD      CLEAR     38  29  70 N7        30.24S WCI  33
GREENVILLE     CLEAR     35  24  64 N9        30.25S WCI  28
OXFORD         FAIR      36  23  60 CALM      30.25S
TUNICA           N/A    N/A N/A N/A N8        30.28S
WINONA         FAIR      39  28  64 N3        30.22S
$$

MSZ003>006-009-014>017-022>024-029>033-037>039-230400-
NORTHEAST MISSISSIPPI

CITY           SKY/WX    TMP DP  RH WIND       PRES   REMARKS
ABERDEEN       FAIR      36  30  80 N5        30.23S WCI  32
COLUMBUS AFB   CLEAR     41  29  63 N7        30.19F
CORINTH        FAIR      36  25  64 NW5       30.24S WCI  32
GOLDN TRIANGLE CLEAR     38  26  62 N7        30.20F WCI  33
STARKVILLE     FAIR      39  28  65 N3        30.22S
TUPELO         CLEAR     34  25  69 N10       30.22F WCI  26
$$

MSZ040-058-230400-
CENTRAL MISSISSIPPI

CITY           SKY/WX    TMP DP  RH WIND       PRES   REMARKS
JACKSON INTL   CLEAR     42  30  62 N7        30.20S
JACKSON HAWKNS CLEAR     41  30  65 N5        30.21S
MADISON        FAIR      39  30  70 N6        30.20S WCI  35
MERIDIAN KEY   CLEAR     41  31  67 N5        30.17F
MERIDIAN NAS   CLEAR     41  30  65 NW5       30.18S
RAYMOND        FAIR      41  36  81 NW3       30.21S
VICKSBURG VKS  CLEAR     41  28  60 N8        30.24S
$$

MSZ059>079-230400-
SOUTH MISSISSIPPI

CITY           SKY/WX    TMP DP  RH WIND       PRES   REMARKS
COLUMBIA       FAIR      46  36  66 N6        30.21S
HATTIESBURG    CLEAR     49  39  68 N6        30.16S
LAUREL         FAIR      42  32  67 N5        30.18R
MCCOMB         CLEAR     47  31  53 N10       30.17S
NATCHEZ        CLEAR     41  32  70 N3        30.23S
PINE BELT      CLEAR     44  36  73 N7        30.17S
$$

MSZ080>082-230400-
COASTAL MISSISSIPPI

CITY           SKY/WX    TMP DP  RH WIND       PRES   REMARKS
BILOXI         PTCLDY    54  42  64 N8        30.11R
PASCAGOULA     PTCLDY    51  42  71 N6        30.11R
GULFPORT       CLEAR     55  41  59 N3        30.12R
$$

LAZ007>009-015>016-023>026-230400-
NORTHEAST LOUISIANA

CITY           SKY/WX    TMP DP  RH WIND       PRES   REMARKS
BASTROP        FAIR      39  28  63 CALM      30.25F
TALLULAH/VBURG CLEAR     40  30  67 N5        30.24S
VIDALIA          N/A    N/A N/A N/A MISG      30.22F
$$




USA.gov is the U.S. government's official web portal to all federal, state and local government web resources and services.